Weather History for Cody, WY

Change the Weather History Date:

Friday, October 25, 2013

  Actual Average Record
Temperature  
Mean Temperature 46 °F -  
Max Temperature 60 °F 57 °F 76 °F (1933)
Min Temperature 32 °F 33 °F 9 °F (1919)
Degree Days  
Heating Degree Days 19    
Moisture  
Dew Point 33 °F    
Average Humidity 65    
Maximum Humidity 100    
Minimum Humidity 31    
Precipitation  
Precipitation 0.00 in - - ()
Sea Level Pressure  
Sea Level Pressure 30.20 in    
Wind  
Wind Speed 6 mph (NW)    
Max Wind Speed 15 mph    
Max Gust Speed 21 mph    
Visibility 10 miles    
Events      
Averages and records for this station are not official NWS values.
T = Trace of Precipitation, MM = Missing Value Source: NWS Daily Summary

Daily Weather History Graph

Daily Weather History Graph

Search for Another Location

Airport:

Trip Planner

Search our weather history database for the weather conditions in past years. The results will help you decide how hot, cold, wet, or windy it might be!

Date:

Astronomy

Oct. 25, 2013 Rise Set
Actual Time 7:44 AM MDT 6:14 PM MDT
Civil Twilight 7:14 AM MDT 6:44 PM MDT
Nautical Twilight 6:40 AM MDT 7:18 PM MDT
Astronomical Twilight 6:06 AM MDT 7:52 PM MDT
Moon 11:34 PM MDT (10/25) 1:30 PM MDT (10/25)
Length of Visible Light 11h 30m
Length of Day
10h 30m
Waning Gibbous, 62% of the Moon is Illuminated
Oct 25
Waning Gibbous
Oct 26
Last Quarter
Nov 3
New
Nov 9
First Quarter
Nov 17
Full

Hourly Weather History & Observations

Time (MDT) Temp. Windchill Dew Point Humidity Pressure Visibility Wind Dir Wind Speed Gust Speed Precip Events Conditions
12:15 AM 44.6 °F 38.4 °F 35.6 °F 71% 30.16 in 10.0 mi SW 12.7 mph - N/A   Clear
12:35 AM 44.6 °F 38.4 °F 35.6 °F 71% 30.16 in 10.0 mi SW 12.7 mph - N/A   Clear
12:55 AM 44.6 °F 38.4 °F 33.8 °F 66% 30.16 in 10.0 mi SW 12.7 mph - N/A   Clear
1:15 AM 42.8 °F 37.0 °F 33.8 °F 70% 30.16 in 10.0 mi SW 10.4 mph - N/A   Clear
1:35 AM 41.0 °F 36.4 °F 33.8 °F 76% 30.16 in 10.0 mi SW 6.9 mph - N/A   Clear
2:15 AM 37.4 °F - 33.8 °F 87% 30.16 in 10.0 mi Calm Calm - N/A   Clear
2:35 AM 37.4 °F - 32.0 °F 81% 30.16 in 10.0 mi Calm Calm - N/A   Clear
2:55 AM 35.6 °F - 32.0 °F 87% 30.16 in 10.0 mi Calm Calm - N/A   Clear
3:15 AM 35.6 °F - 32.0 °F 87% 30.16 in 10.0 mi Calm Calm - N/A   Clear
3:35 AM 35.6 °F 32.8 °F 32.0 °F 87% 30.17 in 10.0 mi West 3.5 mph - N/A   Clear
4:15 AM 35.6 °F - 32.0 °F 87% 30.17 in 10.0 mi Calm Calm - N/A   Clear
4:35 AM 35.6 °F - 33.8 °F 93% 30.16 in 10.0 mi Calm Calm - N/A   Clear
4:55 AM 33.8 °F - 28.4 °F 81% 30.16 in 10.0 mi Calm Calm - N/A   Clear
5:15 AM 33.8 °F - 30.2 °F 87% 30.16 in 10.0 mi Calm Calm - N/A   Clear
5:35 AM 33.8 °F - 30.2 °F 87% 30.17 in - Calm Calm - N/A   Unknown
5:55 AM 33.8 °F - 30.2 °F 87% 30.17 in 10.0 mi Calm Calm - N/A   Clear
6:15 AM 33.8 °F - 30.2 °F 87% 30.17 in 10.0 mi Calm Calm - N/A   Clear
6:35 AM 33.8 °F - 33.8 °F 100% 30.16 in 10.0 mi Calm Calm - N/A   Clear
6:55 AM 33.8 °F - 30.2 °F 87% 30.16 in 10.0 mi Calm Calm - N/A   Clear
7:15 AM 35.6 °F - 33.8 °F 93% 30.15 in 10.0 mi Calm Calm - N/A   Clear
7:35 AM 32.0 °F - 30.2 °F 93% 30.15 in 10.0 mi Calm Calm - N/A   Clear
7:55 AM 33.8 °F 30.8 °F 30.2 °F 87% 30.16 in 10.0 mi South 3.5 mph - N/A   Clear
8:15 AM 32.0 °F - 30.2 °F 93% 30.16 in 10.0 mi Calm Calm - N/A   Clear
8:55 AM 37.4 °F - 33.8 °F 87% 30.17 in 10.0 mi Calm Calm - N/A   Clear
9:15 AM 41.0 °F - 35.6 °F 81% 30.18 in 10.0 mi Calm Calm - N/A   Clear
9:35 AM 42.8 °F - 33.8 °F 70% 30.18 in 10.0 mi Calm Calm - N/A   Clear
9:55 AM 41.0 °F 38.0 °F 33.8 °F 76% 30.19 in 10.0 mi NE 4.6 mph - N/A   Clear
10:15 AM 42.8 °F 41.1 °F 35.6 °F 76% 30.19 in 10.0 mi NNE 3.5 mph - N/A   Clear
10:35 AM 44.6 °F - 35.6 °F 71% 30.19 in 10.0 mi Calm Calm - N/A   Clear
10:55 AM 50.0 °F - 37.4 °F 62% 30.19 in 10.0 mi Calm Calm - N/A   Clear
11:15 AM 53.6 °F - 37.4 °F 54% 30.18 in 10.0 mi Calm Calm - N/A   Clear
11:35 AM 53.6 °F - 39.2 °F 58% 30.19 in 10.0 mi NNE 5.8 mph - N/A   Clear
11:56 AM 55.4 °F - 37.4 °F 51% 30.19 in 10.0 mi NNE 9.2 mph - N/A   Clear
12:15 PM 53.6 °F - 39.2 °F 58% 30.19 in 10.0 mi NNE 10.4 mph - N/A   Clear
12:55 PM 57.2 °F - 39.2 °F 51% 30.19 in 10.0 mi North 4.6 mph - N/A   Clear
1:15 PM 59.0 °F - 39.2 °F 48% 30.19 in 10.0 mi NNE 8.1 mph - N/A   Clear
1:35 PM 59.0 °F - 33.8 °F 39% 30.19 in 10.0 mi NNE 12.7 mph - N/A   Clear
1:55 PM 60.8 °F - 35.6 °F 39% 30.19 in 10.0 mi North 11.5 mph - N/A   Clear
2:15 PM 59.0 °F - 37.4 °F 45% 30.20 in 10.0 mi NNE 9.2 mph - N/A   Clear
2:35 PM 60.8 °F - 37.4 °F 42% 30.20 in 10.0 mi NNE 6.9 mph - N/A   Clear
2:55 PM 60.8 °F - 35.6 °F 39% 30.20 in 10.0 mi North 10.4 mph - N/A   Clear
3:15 PM 60.8 °F - 33.8 °F 36% 30.21 in 10.0 mi North 12.7 mph - N/A   Clear
3:55 PM 60.8 °F - 30.2 °F 31% 30.21 in 10.0 mi NNE 15.0 mph 20.7 mph N/A   Clear
4:35 PM 60.8 °F - 30.2 °F 31% 30.22 in 10.0 mi North 12.7 mph - N/A   Clear
4:55 PM 59.0 °F - 30.2 °F 34% 30.23 in 10.0 mi North 10.4 mph - N/A   Clear
5:35 PM 57.2 °F - 32.0 °F 38% 30.23 in 10.0 mi NNW 6.9 mph - N/A   Clear
5:55 PM 57.2 °F - 30.2 °F 36% 30.23 in 10.0 mi NW 3.5 mph - N/A   Clear
6:15 PM 57.2 °F - 32.0 °F 38% 30.24 in 10.0 mi WNW 4.6 mph - N/A   Clear
6:55 PM 51.8 °F - 32.0 °F 47% 30.25 in 10.0 mi North 4.6 mph - N/A   Clear
7:15 PM 48.2 °F - 30.2 °F 50% 30.25 in 10.0 mi WNW 3.5 mph - N/A   Clear
7:55 PM 44.6 °F 42.2 °F 32.0 °F 61% 30.26 in 10.0 mi South 4.6 mph - N/A   Clear
8:15 PM 46.4 °F - 32.0 °F 57% 30.27 in 10.0 mi Calm Calm - N/A   Clear
8:35 PM 42.8 °F 38.6 °F 30.2 °F 61% 30.27 in 10.0 mi SSE 6.9 mph - N/A   Clear
8:55 PM 42.8 °F 39.3 °F 32.0 °F 66% 30.27 in 10.0 mi SSW 5.8 mph - N/A   Clear
9:15 PM 44.6 °F 42.2 °F 32.0 °F 61% 30.28 in 10.0 mi SW 4.6 mph - N/A   Clear
9:35 PM 46.4 °F 43.5 °F 32.0 °F 57% 30.28 in 10.0 mi SW 5.8 mph - N/A   Clear
10:15 PM 44.6 °F 40.7 °F 33.8 °F 66% 30.28 in 10.0 mi SW 6.9 mph - N/A   Clear
10:35 PM 46.4 °F 42.4 °F 32.0 °F 57% 30.29 in 10.0 mi WSW 8.1 mph - N/A   Clear
10:55 PM 46.4 °F 43.5 °F 32.0 °F 57% 30.29 in 10.0 mi WSW 5.8 mph - N/A   Clear
11:15 PM 46.4 °F 43.5 °F 30.2 °F 53% 30.29 in 10.0 mi SW 5.8 mph - N/A   Clear
11:35 PM 46.4 °F 43.5 °F 30.2 °F 53% 30.29 in 10.0 mi WSW 5.8 mph - N/A   Clear
11:55 PM 44.6 °F 40.7 °F 30.2 °F 57% 30.29 in 10.0 mi SW 6.9 mph - N/A   Clear